Truckee, CA

1:55 AM PDT on August 29, 2016 (GMT -0700)
Truckee-Tahoe

Weather History for KTRK - April, 2014

Change the Weather History Date:

Wednesday, April 30, 2014

  Actual Average Record
Temperature  
Mean Temperature 48 °F -  
Max Temperature 69 °F 60 °F 84 °F (2015)
Min Temperature 26 °F 28 °F 16 °F (1970)
Degree Days  
Heating Degree Days 18    
Moisture  
Dew Point 17 °F    
Average Humidity 45    
Maximum Humidity 74    
Minimum Humidity 7    
Precipitation  
Precipitation 0.00 in - - ()
Sea Level Pressure  
Sea Level Pressure 30.39 in    
Wind  
Wind Speed 2 mph (SE)    
Max Wind Speed 16 mph    
Max Gust Speed 22 mph    
Visibility 10 miles    
Events      
Averages and records for this station are not official NWS values.
T = Trace of Precipitation, MM = Missing Value Source: NWS Daily Summary

Daily Weather History Graph

Daily Weather History Graph

Search for Another Location

Airport or City:

Trip Planner

Search our weather history database for the weather conditions in past years. The results will help you decide how hot, cold, wet, or windy it might be!

Date:

Astronomy

Apr. 30, 2014 Rise Set
Actual Time 6:03 AM PDT 7:53 PM PDT
Civil Twilight 5:34 AM PDT 8:22 PM PDT
Nautical Twilight 4:59 AM PDT 8:57 PM PDT
Astronomical Twilight 4:21 AM PDT 9:35 PM PDT
Moon 7:08 AM PDT (4/30) 9:36 PM PDT (4/30)
Length of Visible Light 14h 47m
Length of Day
13h 50m
Waxing Crescent, 3% of the Moon is Illuminated
Apr 30
Waxing Crescent
May 6
First Quarter
May 14
Full
May 21
Last Quarter
May 28
New

Hourly Weather History & Observations

Time (PDT) Temp. Windchill Dew Point Humidity Pressure Visibility Wind Dir Wind Speed Gust Speed Precip Events Conditions
12:15 AM 32.0 °F - 21.2 °F 64% 30.42 in 10.0 mi Calm Calm - N/A   Clear
12:35 AM 33.8 °F 29.6 °F 21.2 °F 60% 30.42 in 10.0 mi WSW 4.6 mph - N/A   Clear
12:55 AM 35.6 °F 31.7 °F 21.2 °F 56% 30.42 in 10.0 mi NE 4.6 mph - N/A   Clear
1:15 AM 32.0 °F - 21.2 °F 64% 30.42 in 10.0 mi Calm Calm - N/A   Clear
1:35 AM 33.8 °F - 21.2 °F 60% 30.41 in 10.0 mi Calm Calm - N/A   Clear
1:55 AM 32.0 °F - 21.2 °F 64% 30.42 in 10.0 mi Calm Calm - N/A   Clear
2:15 AM 32.0 °F - 19.4 °F 60% 30.41 in 10.0 mi Calm Calm - N/A   Clear
2:35 AM 32.0 °F - 19.4 °F 60% 30.41 in 10.0 mi Calm Calm - N/A   Clear
2:55 AM 32.0 °F 26.4 °F 21.2 °F 64% 30.41 in 10.0 mi West 5.8 mph - N/A   Clear
3:15 AM 30.2 °F - 19.4 °F 64% 30.41 in 10.0 mi Calm Calm - N/A   Clear
3:35 AM 30.2 °F - 19.4 °F 64% 30.41 in 10.0 mi Calm Calm - N/A   Clear
3:55 AM 30.2 °F - 19.4 °F 64% 30.41 in 10.0 mi Calm Calm - N/A   Clear
4:15 AM 32.0 °F - 21.2 °F 64% 30.41 in 10.0 mi Calm Calm - N/A   Clear
4:35 AM 32.0 °F 27.5 °F 21.2 °F 64% 30.41 in 10.0 mi North 4.6 mph - N/A   Clear
4:55 AM 30.2 °F - 19.4 °F 64% 30.42 in 10.0 mi Calm Calm - N/A   Clear
5:15 AM 28.4 °F - 19.4 °F 69% 30.41 in 10.0 mi Calm Calm - N/A   Clear
5:35 AM 28.4 °F 23.3 °F 19.4 °F 69% 30.42 in 10.0 mi North 4.6 mph - N/A   Clear
5:55 AM 28.4 °F - 19.4 °F 69% 30.42 in 10.0 mi Calm Calm - N/A   Clear
6:15 AM 26.6 °F - 19.4 °F 74% 30.42 in 10.0 mi Calm Calm - N/A   Clear
6:35 AM 28.4 °F - 19.4 °F 69% 30.42 in 10.0 mi Calm Calm - N/A   Clear
6:45 AM 28.4 °F - 21.2 °F 74% 30.42 in 10.0 mi Calm Calm - N/A   Clear
7:55 AM 35.6 °F - 21.2 °F 56% 30.43 in 10.0 mi Calm Calm - N/A   Clear
8:45 AM 46.4 °F - 21.2 °F 37% 30.44 in 10.0 mi Calm Calm - N/A   Clear
9:50 AM 53.6 °F - 19.4 °F 26% 30.42 in 10.0 mi NNE 5.8 mph - N/A   Clear
10:45 AM 57.2 °F - 17.6 °F 21% 30.42 in 10.0 mi NNE 8.1 mph - N/A   Clear
11:45 AM 62.6 °F - 17.6 °F 18% 30.40 in 10.0 mi North 4.6 mph - N/A   Clear
12:50 PM 66.2 °F - 10.4 °F 11% 30.38 in 10.0 mi SE 12.7 mph 21.9 mph N/A   Clear
1:45 PM 68.0 °F - 12.2 °F 12% 30.37 in 10.0 mi South 16.1 mph 20.7 mph N/A   Clear
4:45 PM 69.8 °F - 3.2 °F 7% 30.35 in 10.0 mi SE 13.8 mph 21.9 mph N/A   Clear
5:50 PM 68.0 °F - 6.8 °F 9% 30.33 in 10.0 mi ESE 9.2 mph - N/A   Scattered Clouds
6:15 PM 68.0 °F - 8.6 °F 10% 30.32 in 10.0 mi SE 4.6 mph - N/A   Clear
6:35 PM 66.2 °F - 6.8 °F 10% 30.32 in 10.0 mi ESE 6.9 mph - N/A   Clear
6:55 PM 64.4 °F - 10.4 °F 12% 30.32 in 10.0 mi SSE 6.9 mph - N/A   Clear
7:15 PM 62.6 °F - 12.2 °F 14% 30.32 in 10.0 mi South 6.9 mph - N/A   Clear
7:35 PM 55.4 °F - 14.0 °F 20% 30.32 in 10.0 mi SSW 8.1 mph - N/A   Clear
7:55 PM 51.8 °F - 14.0 °F 22% 30.33 in 10.0 mi Calm Calm - N/A   Clear
8:15 PM 55.4 °F - 10.4 °F 17% 30.33 in 10.0 mi Calm Calm - N/A   Clear
8:35 PM 51.8 °F - 15.8 °F 24% 30.34 in 10.0 mi ESE 5.8 mph - N/A   Clear
8:55 PM 44.6 °F - 19.4 °F 37% 30.35 in 10.0 mi Calm Calm - N/A   Clear
9:15 PM 44.6 °F - 17.6 °F 34% 30.35 in 10.0 mi Calm Calm - N/A   Clear
9:35 PM 41.0 °F - 19.4 °F 42% 30.36 in 10.0 mi Calm Calm - N/A   Clear
9:55 PM 42.8 °F - 19.4 °F 39% 30.37 in 10.0 mi Calm Calm - N/A   Clear
10:15 PM 41.0 °F - 17.6 °F 39% 30.37 in 10.0 mi Calm Calm - N/A   Clear
10:35 PM 37.4 °F - 19.4 °F 48% 30.37 in 10.0 mi Calm Calm - N/A   Clear
10:55 PM 37.4 °F - 17.6 °F 45% 30.37 in 10.0 mi Calm Calm - N/A   Clear
11:15 PM 33.8 °F - 19.4 °F 56% 30.37 in 10.0 mi Calm Calm - N/A   Clear
11:35 PM 33.8 °F - 21.2 °F 60% 30.37 in 10.0 mi Calm Calm - N/A   Clear
11:55 PM 33.8 °F 29.6 °F 21.2 °F 60% 30.37 in 10.0 mi SSE 4.6 mph - N/A   Clear